Regional Weather Roundup
Issued by NWS

Home | Current Version | Previous Version | Text Only | Print | Product List | Glossary Off
Versions: 1 2 3 4 5 6 7 8 9 10 11 12 13 14 15 16 17 18 19 20 21 22 23 24 25 26 27 28 29 30 31 32 33 34 35 36 37 38 39 40 41 42 43 44 45 46 47 48 49 50

000
ASUS43 KMPX 252310
RWRMN
WEATHER ROUNDUP FOR MINNESOTA
NATIONAL WEATHER SERVICE TWIN CITIES/CHANHASSEN MN
600 PM CDT SAT OCT 25 2014


NOTE: "FAIR" INDICATES FEW OR NO CLOUDS BELOW 12,000 FEET WITH NO
SIGNIFICANT WEATHER AND/OR OBSTRUCTIONS TO VISIBILITY. N/A MEANS
CURRENT SKY AND/OR WEATHER CONDITIONS ARE NOT AVAILABLE.

MNZ060>063-068>070-260000-
   Twin Cities Metro

CITY           SKY/WX    TMP DP  RH WIND       PRES   REMARKS
TWIN CITIES    CLEAR     59  24  26 NW14      30.04R
ST PAUL        CLEAR     58  25  28 NW12      30.03S
CRYSTAL        CLEAR     60  22  23 NW12      30.03S
BLAINE         CLEAR     61  25  25 NW14      30.03S
LAKEVILLE      CLEAR     57  27  30 W10G17    30.04S
EDEN PRAIRIE   CLEAR     59  24  26 W8        30.04R
SOUTH ST PAUL  CLEAR     61  23  23 W8G16     30.03S
LAKE ELMO      FAIR      57  28  33 NW8       30.03S
$$
MNZ001>005-007-008-013>017-022>024-027-028-260000-
   Northwest Minnesota

CITY           SKY/WX    TMP DP  RH WIND       PRES   REMARKS
BEMIDJI        CLEAR     51  24  33 NW13      30.02S
HALLOCK        CLEAR     57  19  23 NW12      30.00S
ROSEAU         CLEAR     54  27  35 NW8       29.99S
WARROAD        CLEAR     54  28  37 NW9       29.98F
THIEF RVR FALL CLEAR     55  25  30 W7        30.03S
CROOKSTON      CLEAR     55  28  35 NW7       30.04F
FOSSTON        CLEAR     54  25  32 W7        30.05S
DETROIT LAKES  CLEAR     54  27  35 NW10      30.07S
MOORHEAD       CLEAR     57  12  17 NW5       30.07F
PARK RAPIDS    CLEAR     53  21  28 NW12      30.04S
MAHNOMEN       FAIR      54  24  30 NW8       30.05S
$$
MNZ006-009>011-018-025>026-260000-
   North Central Minnesota

CITY           SKY/WX    TMP DP  RH WIND       PRES   REMARKS
BAUDETTE       CLEAR     52  26  36 NW12G22   29.97S
FLAG ISLAND    CLEAR     52  30  43 NW22G31   29.94S
INTL FALLS     CLEAR     50  28  42 W12G22    29.94R
WASKISH        CLEAR     52  34  50 W10G20    30.00S
BIG FORK       CLEAR     54  25  32 W7        29.98S
LONGVILLE      CLEAR     54  25  32 W7        30.02S
GRAND RAPIDS   CLEAR     52  25  35 NW15G22   29.99S
CRANE LAKE     CLEAR     48  27  43 W9        29.94R
ORR            CLEAR     52  25  35 NW10G20   29.92R
COOK           CLEAR     52  27  37 W14G23    29.94S
WALKER         FAIR      53  25  33 W8        30.03S
$$
MNZ012-019>021-037-260000-
   Northeast Minnesota

CITY           SKY/WX    TMP DP  RH WIND       PRES   REMARKS
DULUTH         CLEAR     53  25  33 W17G25    29.95R
ELY            CLEAR     50  23  34 NW20G29   29.90R
HIBBING        CLEAR     53  24  32 W15G22    29.96R
EVELETH        CLEAR     52  27  37 W16G23    29.95S
DULUTH HARBOR  CLEAR     57  28  33 W20G25    29.96S
TWO HARBORS    CLEAR     57   3  11 W12G20    29.90R
SILVER BAY     CLEAR     55  23  28 W12G20    29.89R
GRAND MARAIS     N/A     53  28  38 W7G24     29.83R
G MARAIS ARPRT CLEAR     46  25  42 W13G24    29.84R
$$
MNZ029>031-032-039>041-046>048-054>057-064-260000-
   West Central Minnesota

CITY           SKY/WX    TMP DP  RH WIND       PRES   REMARKS
FERGUS FALLS   CLEAR     55  21  26 N7        30.08F
WHEATON        CLEAR     55  27  33 NW5       30.10S
MORRIS         CLEAR     57  28  33 NW7       30.07F
ALEXANDRIA     CLEAR     55  25  31 NW7       30.08S
ELBOW LAKE     FAIR      55  28  34 NW7       30.07F
WADENA         CLEAR     52  28  40 NW7       30.05F
GLENWOOD       CLEAR     54  27  35 NW8       30.08F
APPLETON       CLEAR     61  27  27 NW6       30.08F
BENSON         CLEAR     55  28  35 N5        30.09S
ORTONVILLE     CLEAR     59  27  29 N3        30.08F
MADISON        CLEAR     61  30  31 N6        30.09S
WILLMAR        FAIR      55  27  33 NW7       30.10S
$$
MNZ033>034-036-042>043-049>051-058-059-260000-
   Central Minnesota

CITY           SKY/WX    TMP DP  RH WIND       PRES   REMARKS
ST CLOUD       CLEAR     58  27  30 NW12      30.05S
SAUK CENTRE    FAIR      55  26  33 NW9       30.07S
PAYNESVILLE    CLEAR     54  25  33 W8        30.08S
AITKIN         CLEAR     57  16  19 W6        30.00S
PINE RIVER     CLEAR     55  27  33 W6        30.06S
BRAINERD       CLEAR     55  23  28 NW13      30.04S
STAPLES        CLEAR     52  27  37 W7        30.05S
LONG PRAIRIE   FAIR      52  27  37 W7        30.07S
LITTLE FALLS   CLEAR     54  27  35 NW8       30.05F
LITCHFIELD     CLEAR     59  25  27 NW9       30.08S
BUFFALO        CLEAR     58  25  28 W9        30.06S
MAPLE LAKE     CLEAR     57  31  37 W7        30.06S
$$
MNZ037-044-045-052-053-260000-
   East Central Minnesota

CITY           SKY/WX    TMP DP  RH WIND       PRES   REMARKS
PRINCETON      CLEAR     57  27  30 W9        30.04S
MORA           CLEAR     54  23  30 NW8       30.04R
CAMBRIDGE      CLEAR     59  36  41 W10       30.01S
RUSH CITY      PTCLDY    56  25  29 NW7       30.02R
MOOSE LAKE     CLEAR     55  25  30 NW10G20   29.98R
HINCKLEY       FAIR      57  23  26 W8        30.01R
CLOQUET        CLEAR     54  19  26 W9G18     29.97R
MCGREGOR       CLEAR     55  25  30 NW9G18    30.01S
$$
MNZ071>073-080-081-089-090-097-098-260000-
   Southwest Minnesota

CITY           SKY/WX    TMP DP  RH WIND       PRES   REMARKS
MONTEVIDEO     CLEAR     61  28  29 N5        30.10S
GRANITE FALLS  CLEAR     59  30  33 CALM      30.10F
CANBY          CLEAR     60  31  33 NE3       30.10F
MARSHALL       CLEAR     61  30  31 N7        30.09S
REDWOOD FALLS  CLEAR     61  27  27 NW8       30.09R
OLIVIA         CLEAR     57  32  38 NW7       30.08S
PIPESTONE      CLEAR     64  27  24 CALM      30.08F
WINDOM         CLEAR     59  30  33 CALM      30.10S
WORTHINGTON    CLEAR     61  28  29 N6        30.10F
JACKSON        CLEAR     61  27  27 N6        30.10S
TRACY          CLEAR     60  31  33 N5        30.10S
SLAYTON        CLEAR     59  28  31 N3        30.10F
$$
MNZ065>067-074>077-082>085-091>093-260000-
   South Central Minnesota

CITY           SKY/WX    TMP DP  RH WIND       PRES   REMARKS
MANKATO        CLEAR     61  28  29 NW12      30.07S
NEW ULM        CLEAR     59  32  36 NW9       30.08R
ST JAMES       CLEAR     61  28  29 W6        30.09S
FAIRMONT       CLEAR     63  -8   6 NW10      30.08S
GLENCOE        CLEAR     60  29  31 NW9       30.07R
FARIBAULT      CLEAR     61  25  25 W10G18    30.06S
OWATONNA       CLEAR     59  27  29 NW8       30.06R
WASECA         CLEAR     55  23  28 NW6       30.08S
ALBERT LEA     CLEAR     61  28  29 NW7       30.06S
$$
MNZ078>079-086>088-094>096-260000-
   Southeast Minnesota

CITY           SKY/WX    TMP DP  RH WIND       PRES   REMARKS
ROCHESTER      CLEAR     58  29  33 NW10G18   30.05S
RED WING       CLEAR     61  25  25 NW7       30.01S
STANTON        CLEAR     58  26  28 NW9       30.03S
DODGE CENTER   CLEAR     57  28  33 NW10      30.05R
WINONA         CLEAR     61  30  31 NW8       30.01S
AUSTIN         CLEAR     57  30  35 NW9       30.05S
PRESTON        CLEAR     56  29  35 NW12      30.04S
$$
ABBREVIATIONS USED IN REMARKS
   TC - TEMPERATURES IN CELSIUS
  WCI - WIND CHILL INDEX
   HX - HEAT INDEX
  VSB - VISIBILITY
$$



USA.gov is the U.S. government's official web portal to all federal, state and local government web resources and services.